Dewpoint
48 48 48 47 48 46 46 46 47 47 48 48 50 50 50 51 51 51 51 52 52 52 53 53 53 53 52 52 52 51 51 45 43 40 39 39 43 48 50 56 54 58 60 52 44 38 32 28 25 26 28 27 26 26 28 29 28 27 21 21 18 15 12 13 12 8 7 6 6 8 7 9 8 9 8 11 55 62 64 64 65 66 65 65 67 67 67 67
46 46 47 47 47 47 47 48 47 47 46 47 48 48 50 50 51 52 52 52 52 52 52 52 53 52 53 52 53 52 49 44 41 41 40 43 48 52 51 52 56 60 56 41 37 34 31 27 24 25 26 26 25 24 27 25 28 26 24 19 19 18 14 12 12 11 9 8 9 7 7 10 9 13 12 11 15 56 63 64 65 65 66 67 67 67 67 67
45 45 46 46 45 45 45 47 48 49 50 47 47 47 47 48 49 51 52 52 52 52 52 52 52 52 52 52 53 53 47 42 41 36 34 52 55 53 51 53 61 62 41 33 32 30 28 27 27 26 23 24 20 20 24 23 26 26 25 20 19 18 15 13 13 12 12 11 10 9 7 8 10 13 13 15 18 51 59 62 64 64 65 66 66 67 67 67
46 46 47 47 47 48 48 48 48 49 50 50 48 47 46 47 48 49 51 52 52 52 52 52 52 52 52 52 53 51 44 42 34 35 38 53 58 59 54 52 61 59 45 37 33 32 32 32 32 33 31 21 20 18 17 20 22 19 22 22 20 17 15 15 14 13 13 13 11 10 9 7 11 12 14 12 8 32 53 63 62 64 65 66 66 66 66 66
47 47 47 46 47 48 48 46 47 47 49 49 50 49 47 47 46 47 48 51 52 51 51 51 51 51 52 52 53 49 44 29 29 43 47 53 58 60 57 55 56 52 47 37 36 34 33 32 31 32 32 25 19 16 15 15 19 15 18 22 19 17 15 17 16 15 14 14 13 10 7 6 7 13 12 11 9 6 25 58 64 66 66 66 66 66 66 66
47 48 47 47 47 47 46 46 46 47 46 48 49 50 48 47 47 46 47 48 50 51 51 51 51 51 51 53 50 47 41 19 35 36 51 55 57 59 59 57 56 48 44 36 33 33 32 30 29 30 30 29 23 16 15 14 15 15 15 12 14 17 16 18 16 16 16 15 12 8 9 9 13 10 16 12 9 11 11 56 66 66 66 66 66 66 66 66
47 47 47 47 47 47 46 47 47 47 46 47 47 49 49 48 48 48 48 47 47 49 50 51 51 51 51 52 48 46 40 37 38 38 47 49 52 55 57 57 55 48 40 35 33 30 30 27 27 28 29 27 26 19 15 13 14 12 12 11 10 10 13 16 16 16 14 12 11 11 16 14 13 10 13 10 10 12 34 66 66 66 66 66 66 66 66 66
47 47 47 46 47 47 47 47 47 47 47 46 47 48 49 49 48 48 48 48 47 48 50 50 51 51 51 48 44 39 37 38 39 38 47 50 42 41 43 50 50 47 42 36 32 30 29 27 27 28 28 26 23 22 18 13 12 12 11 10 9 9 8 11 13 14 15 14 13 10 8 7 13 13 12 12 9 36 60 66 66 66 66 66 66 66 66 66
47 46 46 46 46 46 46 46 47 47 47 48 47 48 48 48 49 48 48 47 48 48 48 49 50 50 50 48 43 39 36 38 40 40 40 38 38 38 38 36 46 40 35 36 34 31 30 28 27 27 25 26 27 25 22 12 10 11 11 11 9 8 8 8 10 12 13 13 12 10 8 8 12 15 14 13 10 61 65 65 66 66 66 66 66 66 66 66
47 47 46 46 46 45 46 46 46 47 47 47 48 48 48 48 48 48 48 47 47 48 49 48 49 49 48 45 41 36 36 38 39 40 38 38 38 37 37 37 34 36 33 33 32 30 30 30 27 27 26 24 24 22 21 15 11 13 10 10 9 9 8 8 8 9 11 11 11 8 7 9 15 15 12 12 42 64 64 64 66 66 65 66 66 66 66 66
48 47 47 46 46 46 47 46 47 47 47 47 47 48 47 47 48 48 48 47 47 47 48 48 48 48 45 44 39 34 38 37 38 40 39 38 37 37 37 37 36 34 27 27 30 30 28 28 28 30 25 23 21 19 19 16 14 12 13 11 9 9 8 8 8 7 8 7 8 8 8 11 15 14 12 10 55 63 63 64 65 65 65 65 66 66 66 66
49 48 46 46 46 46 46 47 46 46 47 47 47 47 46 47 47 47 47 48 48 47 47 47 48 46 46 43 40 36 38 40 41 40 39 38 37 38 38 37 37 35 33 28 26 27 27 25 25 24 23 24 21 21 18 17 14 13 9 7 10 10 7 7 7 7 7 6 10 12 11 13 14 12 13 10 47 62 63 63 64 64 65 65 66 66 66 66
48 48 49 48 47 45 45 46 46 46 47 47 47 46 46 46 47 47 48 47 47 47 47 47 47 45 44 36 38 40 41 41 40 41 40 40 39 39 38 37 36 35 33 29 26 27 27 27 26 22 22 23 21 16 15 16 11 9 8 6 5 5 5 6 6 6 5 6 8 13 8 10 12 12 11 10 50 62 62 63 63 64 64 65 65 66 66 67
48 48 48 48 48 46 45 46 46 46 45 46 46 46 47 47 47 47 48 47 48 48 48 48 46 45 42 35 38 39 40 40 39 39 37 38 36 35 36 36 35 34 32 29 27 26 26 26 25 23 22 22 23 26 23 19 22 5 7 8 7 6 5 5 6 5 4 5 5 11 8 8 11 12 12 12 23 61 61 62 63 63 63 64 65 65 65 66
48 48 48 48 47 47 47 46 46 46 46 45 45 46 46 46 47 47 47 47 47 47 48 46 45 44 38 35 36 38 46 42 39 38 38 36 36 34 34 35 34 32 31 28 26 27 26 26 26 22 19 24 24 25 23 20 20 8 6 4 6 6 6 5 8 6 3 4 7 10 8 6 9 11 11 13 10 51 60 61 62 62 62 64 64 65 65 66
48 47 47 47 47 47 48 48 46 45 45 46 46 45 46 46 46 47 47 47 47 47 45 44 43 42 37 31 32 38 33 32 36 40 40 39 37 35 35 33 33 31 29 26 26 26 25 25 22 20 22 24 24 24 22 17 15 10 7 16 7 6 5 5 5 8 5 5 8 6 5 9 9 10 11 13 12 9 35 60 61 61 62 63 64 64 65 65
47 47 47 47 47 47 48 48 47 47 46 45 47 46 47 47 47 47 47 47 46 46 45 42 40 40 30 33 36 31 31 32 33 33 34 40 38 36 35 34 32 30 28 26 25 25 25 24 23 21 20 22 25 23 21 19 17 14 9 9 10 4 5 3 6 6 8 7 5 8 6 9 13 11 10 11 11 11 10 48 61 61 62 63 64 64 65 65
47 47 47 46 47 47 47 48 48 47 47 46 47 46 44 46 47 47 46 47 46 44 43 43 40 37 30 36 32 31 33 33 33 32 32 33 38 37 35 33 31 29 26 24 24 24 24 22 19 20 24 21 24 22 20 16 17 15 12 11 8 7 8 4 3 5 7 8 6 6 7 7 8 10 10 10 10 10 12 32 59 59 61 62 63 63 59 59
46 46 46 47 46 47 47 47 48 47 46 47 47 46 46 46 42 40 40 40 40 38 35 34 36 23 9 28 33 33 33 34 32 32 31 31 36 36 35 34 30 27 24 22 22 23 23 20 23 20 19 22 22 22 21 15 12 12 10 10 9 6 3 4 4 6 4 6 5 6 7 6 7 7 9 13 14 11 12 28 55 57 59 62 62 58 59 60
47 46 47 46 46 47 47 47 47 48 47 45 44 42 39 32 32 31 42 40 36 32 32 31 35 30 27 28 28 28 29 31 31 31 31 30 35 34 33 32 29 27 24 22 21 22 20 19 17 17 18 22 23 23 20 16 9 7 7 7 6 4 4 6 6 5 5 4 4 6 8 7 7 7 9 10 14 17 14 44 53 55 59 61 58 58 59 59
47 46 47 47 46 47 47 47 47 47 48 45 44 39 33 32 30 29 36 36 35 35 34 32 31 32 31 30 30 30 29 30 32 31 32 33 33 33 31 30 27 25 24 22 20 21 19 18 18 18 20 22 24 24 22 14 13 8 6 5 4 4 3 4 4 4 5 12 5 8 6 6 7 9 9 10 12 12 28 48 51 53 58 58 58 58 59 59
47 47 47 46 47 47 47 47 47 48 47 44 42 38 36 35 35 41 39 31 34 34 33 33 33 32 33 32 32 31 29 28 28 29 31 32 32 29 29 27 24 22 23 22 20 20 18 17 18 18 20 21 23 23 23 18 13 10 8 7 6 4 4 3 3 3 4 4 5 7 5 4 7 8 9 10 10 12 34 47 51 54 57 57 58 58 59 59
47 47 47 46 46 46 46 46 47 47 43 40 39 39 38 38 39 44 41 37 32 33 32 32 31 31 31 32 32 32 29 28 27 29 30 30 30 28 28 25 23 22 21 21 18 18 17 16 17 18 19 20 20 21 22 21 19 14 10 8 6 7 3 3 5 3 3 7 12 10 6 6 8 10 10 11 11 12 40 48 51 56 57 58 58 58 58 58
47 46 46 46 46 46 46 46 46 43 39 37 36 39 40 39 40 41 39 31 28 28 28 29 31 30 29 28 29 29 28 28 29 28 31 31 27 26 26 24 21 20 19 20 18 16 15 16 17 17 17 18 19 18 20 21 19 18 12 7 5 4 4 4 7 10 7 4 6 5 13 9 8 8 9 10 17 12 41 52 56 56 57 58 58 58 58 58
46 46 46 46 47 45 45 46 41 40 39 38 37 42 40 40 40 43 34 30 30 30 29 27 27 27 28 30 29 29 29 29 29 30 31 28 25 24 22 23 19 18 18 19 18 16 16 16 17 15 15 16 17 17 17 19 18 17 15 10 7 6 4 5 5 7 9 12 7 3 4 5 14 11 6 6 38 23 44 53 54 55 56 57 57 57 58 58
46 46 46 46 45 46 45 40 39 39 40 38 37 39 40 39 38 37 33 25 19 17 27 27 28 24 30 27 26 26 27 25 29 29 31 30 31 25 22 19 17 15 17 18 17 18 15 17 16 15 14 15 15 16 16 16 17 16 13 11 9 7 6 5 4 7 8 5 12 8 3 12 22 13 10 11 39 41 51 54 55 55 55 56 56 57 57 58
45 46 46 46 45 45 42 38 40 41 38 37 40 40 40 40 39 35 25 19 15 28 29 32 22 29 27 26 25 26 22 22 25 28 29 31 29 28 20 17 15 16 17 21 20 15 15 15 16 15 14 13 14 14 15 13 13 12 11 9 9 8 7 6 6 6 11 16 11 12 4 4 5 10 14 14 45 49 52 54 55 55 55 55 55 56 57 58
46 46 45 44 45 45 42 42 41 39 38 39 41 41 41 40 38 37 23 8 6 30 30 33 30 36 28 31 26 24 24 26 22 22 26 28 28 25 23 17 14 13 16 17 15 18 16 13 15 15 15 13 12 13 14 13 10 10 9 8 8 7 7 6 6 9 13 9 5 9 11 7 7 15 23 39 47 49 52 54 55 55 55 55 55 55 57 58
47 46 46 46 46 46 45 42 42 39 40 41 41 42 42 40 36 27 17 5 24 30 38 32 39 33 30 32 26 25 24 27 22 24 25 26 25 24 20 19 18 14 15 17 17 14 13 13 14 15 15 14 14 13 13 12 10 7 8 8 9 9 8 7 8 6 13 11 9 8 11 5 9 24 16 40 45 48 52 54 54 55 55 56 56 56 57 58
47 46 47 46 46 44 42 42 41 41 41 41 40 40 43 36 27 14 3 -1 31 19 34 35 34 29 32 29 25 25 24 24 25 23 24 23 24 24 23 22 18 16 14 15 15 13 12 19 18 15 14 15 15 14 13 12 10 7 7 6 6 6 7 13 14 8 10 10 7 6 8 6 4 15 10 29 42 48 53 54 55 55 55 56 56 56 57 58
46 46 47 47 44 43 43 41 41 40 42 43 42 40 36 31 18 9 3 6 19 28 35 34 29 34 32 28 27 25 25 24 23 23 20 22 20 22 21 19 19 19 22 14 14 14 13 11 12 13 17 15 15 13 13 12 10 5 4 6 6 8 10 10 13 13 6 8 15 16 11 6 5 12 14 17 27 51 54 54 54 55 55 55 56 56 57 58
47 47 47 46 46 46 42 40 41 46 45 44 43 36 30 18 20 10 7 18 17 24 27 29 31 32 32 31 29 29 23 23 23 22 19 18 19 18 19 17 19 17 17 17 13 13 12 10 10 11 22 15 14 13 11 11 9 6 5 8 7 8 7 6 5 7 7 7 13 12 6 6 7 17 20 12 33 52 54 54 54 54 55 55 56 56 57 57
46 46 47 46 46 44 45 44 45 46 44 44 40 35 27 20 12 16 14 24 18 28 27 31 30 31 30 30 29 29 26 21 21 21 20 17 16 16 17 17 18 21 16 20 16 13 12 11 9 9 11 18 14 12 9 8 8 6 4 8 6 6 5 4 8 10 10 12 14 10 7 9 14 15 18 18 24 52 53 54 55 55 55 55 55 56 57 57
46 46 44 45 45 44 46 47 47 45 43 42 36 31 27 18 14 24 23 25 25 32 32 30 30 30 30 29 29 29 23 23 18 18 18 16 15 17 15 16 16 16 22 20 13 10 11 9 9 8 9 12 13 12 9 9 8 6 5 8 9 10 10 2 7 4 5 8 10 7 7 8 4 10 17 17 22 52 53 54 55 55 55 55 55 56 56 57
46 45 44 43 44 48 48 48 46 46 42 37 32 28 19 16 19 20 23 26 29 31 29 31 30 29 27 27 30 29 28 24 16 14 14 14 15 17 16 15 16 16 19 16 18 13 8 11 14 9 14 11 11 13 9 6 6 5 5 10 10 8 20 5 14 12 10 4 4 8 10 15 9 20 31 22 32 47 52 54 55 54 55 55 55 56 56 56
44 42 44 42 43 46 46 47 46 44 38 33 28 22 19 21 20 22 25 32 32 28 28 30 29 27 25 24 27 27 30 27 26 17 13 13 14 14 16 16 16 16 17 17 19 12 9 11 12 8 9 10 10 11 8 6 8 8 4 6 8 15 9 12 8 22 15 9 6 18 13 18 23 16 18 39 43 49 53 54 54 54 54 55 55 55 56 56
41 42 40 42 43 46 47 47 46 41 37 33 26 19 23 23 23 22 29 30 30 31 30 24 25 24 24 23 23 26 28 30 27 22 14 12 14 13 14 15 16 15 15 18 17 19 12 15 15 9 6 9 11 10 8 6 16 7 4 5 8 12 19 17 9 9 8 9 14 14 4 7 6 11 32 43 45 49 52 53 53 54 54 54 54 55 56 56
41 41 43 43 44 46 48 46 44 40 36 31 24 26 25 23 24 24 28 30 30 32 28 26 26 26 23 25 23 26 27 29 29 25 18 12 16 14 13 14 15 14 14 15 17 22 18 8 7 9 8 8 12 10 8 6 9 5 4 7 5 11 7 12 17 1 1 2 5 11 13 12 11 11 19 40 45 47 50 52 52 53 54 54 54 55 55 56
40 39 34 42 46 46 46 46 43 39 33 27 25 24 25 24 24 25 28 33 30 29 27 27 25 28 28 26 26 27 29 27 29 28 18 13 10 15 14 13 13 14 14 15 14 20 24 17 15 11 8 8 12 9 12 8 13 14 7 5 12 15 18 8 12 16 10 8 0 7 9 8 18 16 15 30 46 47 50 51 52 52 53 54 55 55 55 56
39 37 34 43 45 46 46 44 39 34 31 24 25 26 25 24 27 28 28 30 28 29 28 25 27 27 28 28 29 28 29 29 29 28 25 19 13 18 13 14 12 12 13 14 13 19 18 26 17 17 10 9 12 11 12 9 12 10 6 6 7 17 17 13 19 9 7 10 9 8 2 15 18 25 17 28 47 48 50 50 51 52 53 54 55 55 55 56
41 36 35 44 46 46 44 40 34 30 29 29 28 26 27 28 31 31 31 31 30 31 26 26 29 28 29 29 26 29 29 31 31 28 26 20 11 11 13 13 13 11 12 12 12 18 15 19 18 27 11 8 11 16 12 11 10 12 14 13 8 7 6 3 13 14 19 19 9 3 9 19 25 33 35 22 48 49 49 50 50 51 53 53 54 55 56 56
38 30 32 44 47 45 40 33 33 33 31 29 28 30 30 35 32 30 30 31 31 29 32 29 31 32 31 30 30 30 31 31 31 29 28 24 18 18 11 12 12 11 11 15 12 19 17 27 25 15 16 11 12 13 13 13 13 11 8 13 6 16 12 11 6 14 9 12 18 15 9 11 21 37 46 38 47 49 50 50 50 51 52 53 54 55 56 56
36 34 38 45 46 43 39 32 33 32 31 32 33 33 35 33 32 32 33 33 33 31 31 31 31 30 33 33 33 31 29 30 29 29 28 27 25 13 14 10 11 9 11 16 11 14 31 19 20 18 19 19 17 13 13 13 12 13 13 13 7 12 14 13 21 21 11 18 4 10 6 20 35 43 49 47 48 49 50 49 49 50 52 52 54 55 56 56
37 36 36 44 46 43 35 28 28 30 32 33 33 32 33 33 33 32 33 35 34 33 32 31 29 32 30 31 31 29 30 26 29 29 29 29 26 20 13 10 10 9 11 17 14 29 19 26 21 17 14 15 16 18 13 15 12 20 17 19 8 15 16 25 23 22 6 16 15 12 8 20 36 40 50 48 48 49 49 49 49 50 51 52 53 55 56 56
38 39 38 40 44 40 31 33 32 31 32 31 31 30 31 33 35 36 34 34 35 35 34 33 31 34 33 32 32 31 31 31 30 32 32 30 31 30 16 10 10 12 10 25 36 29 21 27 27 18 14 10 11 12 15 16 14 17 21 11 7 6 19 11 9 9 8 23 18 15 18 29 36 44 50 49 48 49 49 50 50 50 51 52 54 55 56 56
34 28 31 33 35 38 37 40 37 35 32 31 30 30 33 32 34 36 36 36 36 36 38 35 36 36 34 33 32 32 32 33 32 33 33 32 31 27 28 11 10 10 26 37 33 27 26 31 30 27 19 18 20 21 24 21 15 11 18 15 13 9 11 18 22 15 12 21 13 24 33 33 35 46 48 48 47 48 49 51 52 53 53 54 55 56 56 56
35 29 31 29 32 36 31 32 35 34 31 33 29 32 31 33 34 34 39 35 36 36 36 36 34 33 33 35 34 33 34 34 35 34 34 33 35 36 37 29 10 18 33 33 38 24 27 21 24 27 27 24 28 21 22 14 16 21 15 16 18 14 17 17 12 14 21 8 14 27 34 31 36 41 48 48 48 49 49 50 52 53 54 54 54 55 56 57
30 33 34 37 31 28 30 29 31 32 33 35 32 34 33 32 33 32 36 36 36 37 36 34 34 34 34 37 36 32 34 34 34 30 35 36 35 37 36 15 9 24 35 24 35 26 26 19 25 26 25 30 27 29 24 20 18 19 20 23 20 24 21 16 21 26 22 11 18 25 33 31 29 44 49 49 50 50 51 51 52 52 53 53 54 55 56 57
35 36 35 37 30 31 32 32 33 33 33 34 34 35 32 33 32 35 36 36 36 35 37 30 33 35 37 39 37 35 35 32 30 35 35 35 36 36 36 25 21 31 26 26 21 32 21 20 29 27 27 30 28 31 30 23 22 19 24 24 27 25 26 28 27 31 23 22 27 31 33 33 34 41 48 49 50 51 51 52 53 53 53 53 54 54 55 56
32 31 31 35 34 33 33 33 33 32 31 35 32 33 33 33 33 35 36 36 33 34 38 35 35 37 37 37 37 35 36 37 37 34 36 37 36 38 38 36 36 37 30 21 28 30 24 25 31 32 25 27 32 33 31 32 22 19 24 31 32 28 29 29 28 28 29 30 36 37 38 37 43 45 47 49 50 51 52 53 53 53 53 53 54 55 55 54
38 40 38 32 30 31 33 32 31 31 30 34 31 32 34 34 34 36 36 38 36 35 36 37 37 36 36 36 36 37 38 38 39 38 39 39 35 40 38 38 38 38 36 27 30 28 32 21 32 31 28 25 33 33 30 32 30 29 33 35 35 27 20 24 20 28 21 24 37 37 36 38 44 47 49 49 50 51 51 51 52 53 53 53 54 53 53 53
38 39 39 36 29 33 30 31 30 32 30 34 33 33 33 34 36 38 34 38 39 41 40 39 38 37 35 35 35 36 39 40 41 41 42 42 42 41 40 40 40 38 36 28 33 24 28 26 26 25 25 23 33 33 29 30 25 21 27 33 35 34 30 31 31 30 28 34 33 31 34 41 46 47 49 47 49 48 50 50 51 50 52 52 52 53 53 53